Location: Unspecified
(42.2730°N, 83.7130°W)
Time: 14:33:59
(UTC+00:00)

USA 238 - Pass Details

Date: 14 December 2025
Orbit: 883 x 1328 km, 63.4° (Epoch: 10 January)

Event Time Altitude Azimuth Distance (km) Brightness Sun altitude
Rises 23:27:15 0° 228° (SW) 3,510 7.7 -14.9°
Reaches altitude 10° 23:29:43 10° 232° (SW) 2,603 6.9 -15.4°
Maximum altitude 23:35:39 58° 311° (NW) 1,126 4.0 -16.4°
Enters shadow 23:41:28 13° 28° (NNE) 2,597 5.3 -17.5°
